This demonstration page uses our WeatherBlox Daily Observations layout. Learn more.

Left ArrowRight Arrow

Hourly Observations for June 15, 2021

Temp ( °F °C ) Dew Point ( °F °C ) Humidity (%) Winds ( mph kmh ) Pressure ( in mb ) Visibility ( mi km ) Precip ( " mm )
12:15 am 00:15 Clear 61 16 61 16 100 100 WNW 3 6 29.83 1010 10 16 N/A
12:35 am 00:35 Partly Cloudy 59 15 59 15 100 100 WNW 6 9 29.82 1010 10 16 N/A
12:55 am 00:55 Mostly Cloudy 59 15 59 15 100 100 NNW 5 7 29.82 1010 10 16 N/A
1:15 am 01:15 Mostly Cloudy 59 15 59 15 100 100 NW 3 6 29.82 1010 10 16 N/A
1:35 am 01:35 Partly Cloudy 59 15 57 14 94 94 N N/A 29.82 1010 10 16 N/A
1:55 am 01:55 Partly Cloudy 59 15 57 14 94 94 NNW 5 7 29.82 1010 10 16 N/A
2:15 am 02:15 Clear 59 15 57 14 94 94 N 8 13 29.81 1009 10 16 N/A
2:35 am 02:35 Clear 57 14 57 14 100 100 NNW 6 9 29.80 1009 10 16 N/A
2:55 am 02:55 Clear 57 14 55 13 94 94 NNW 8 13 29.80 1009 10 16 N/A
3:15 am 03:15 Clear 59 15 55 13 88 88 NNW 9 15 29.81 1009 10 16 N/A
3:35 am 03:35 Partly Cloudy 57 14 55 13 94 94 NNW 7 11 29.81 1009 10 16 N/A
3:55 am 03:55 Cloudy 59 15 55 13 88 88 NW 9 15 29.81 1009 10 16 N/A
4:15 am 04:15 Cloudy 57 14 55 13 94 94 NNW 10 17 29.81 1009 10 16 N/A
4:35 am 04:35 Partly Cloudy 57 14 55 13 94 94 NNW 8 13 29.81 1009 10 16 N/A
4:55 am 04:55 Clear 59 15 55 13 88 88 NNW 5 7 29.82 1010 10 16 N/A
5:15 am 05:15 Clear 57 14 55 13 94 94 N 6 9 29.82 1010 10 16 N/A
5:35 am 05:35 Clear 57 14 55 13 94 94 N 5 7 29.82 1010 10 16 N/A
5:55 am 05:55 Sunny 57 14 55 13 94 94 NNW 5 7 29.83 1010 10 16 N/A
6:15 am 06:15 Sunny 55 13 54 12 94 94 NNW 5 7 29.83 1010 10 16 N/A
6:35 am 06:35 Sunny 57 14 54 12 88 88 NNW 8 13 29.84 1011 10 16 N/A
6:55 am 06:55 Sunny 57 14 55 13 94 94 NNW 8 13 29.84 1011 10 16 N/A
7:15 am 07:15 Sunny 59 15 55 13 88 88 NNW 8 13 29.84 1010 10 16 N/A
7:35 am 07:35 Sunny 61 16 55 13 83 83 NNW 10 17 29.84 1010 10 16 N/A
7:55 am 07:55 Sunny 61 16 55 13 83 83 NNW 10 17 29.85 1011 10 16 N/A
8:15 am 08:15 Sunny 63 17 55 13 77 77 NNW 13 20 29.85 1011 10 16 N/A
8:35 am 08:35 Sunny 63 17 55 13 77 77 NNW 12 19 29.86 1011 10 16 N/A
8:55 am 08:55 Sunny 64 18 55 13 73 73 NW 8 13 29.86 1011 10 16 N/A
9:15 am 09:15 Partly Cloudy 64 18 55 13 73 73 WNW 6 9 29.86 1011 10 16 N/A
9:35 am 09:35 Mostly Cloudy 64 18 55 13 73 73 NW 6 9 29.87 1012 10 16 N/A
9:55 am 09:55 Partly Cloudy 66 19 54 12 64 64 N 10 17 29.86 1011 10 16 N/A
10:15 am 10:15 Partly Cloudy 68 20 55 13 64 64 NNW 14 22 29.86 1011 10 16 N/A
10:35 am 10:35 Sunny 68 20 55 13 64 64 NW 14 22 29.85 1011 10 16 N/A
10:55 am 10:55 Sunny 68 20 55 13 64 64 NNW 14 22 29.86 1011 10 16 N/A
11:15 am 11:15 Partly Cloudy 68 20 55 13 64 64 NW 15 24 29.86 1011 10 16 N/A
11:35 am 11:35 Mostly Cloudy 70 21 55 13 60 60 NNW 10 17 29.87 1012 10 16 N/A
11:55 am 11:55 Mostly Cloudy 70 21 54 12 57 57 N 13 20 29.87 1012 10 16 N/A
12:15 pm 12:15 Mostly Cloudy 72 22 54 12 53 53 N 14 22 29.87 1011 10 16 N/A
12:35 pm 12:35 Mostly Cloudy 70 21 54 12 57 57 N 8 13 29.87 1012 10 16 N/A
12:55 pm 12:55 Mostly Cloudy 72 22 54 12 53 53 N 12 19 29.87 1011 10 16 N/A
1:15 pm 13:15 Mostly Cloudy 72 22 54 12 53 53 N 15 24 29.87 1011 10 16 N/A
1:35 pm 13:35 Mostly Cloudy 73 23 55 13 53 53 NNW 8 13 29.87 1011 10 16 N/A
1:55 pm 13:55 Mostly Cloudy 72 22 55 13 57 57 NW 10 17 29.87 1011 10 16 N/A
2:15 pm 14:15 Mostly Cloudy 72 22 55 13 57 57 NNW 6 9 29.87 1011 10 16 N/A
2:35 pm 14:35 Cloudy 73 23 55 13 53 53 NNW 16 26 29.86 1011 10 16 N/A
2:55 pm 14:55 Mostly Cloudy 75 24 55 13 50 50 NNW 8 13 29.85 1011 10 16 N/A
3:15 pm 15:15 Mostly Cloudy 73 23 55 13 53 53 NW 9 15 29.85 1011 10 16 N/A
3:35 pm 15:35 Partly Cloudy 75 24 55 13 50 50 NW 13 20 29.85 1011 10 16 N/A
3:55 pm 15:55 Mostly Cloudy 73 23 55 13 53 53 NW 13 20 29.84 1010 10 16 N/A
4:55 pm 16:55 Cloudy 73 23 55 13 53 53 NNW 9 15 29.85 1011 10 16 N/A
5:15 pm 17:15 Mostly Cloudy 73 23 55 13 53 53 NNW 13 20 29.84 1010 10 16 N/A
5:55 pm 17:55 Sunny 73 23 54 12 50 50 NNW 13 20 29.83 1010 10 16 N/A
6:15 pm 18:15 Sunny 75 24 54 12 47 47 NNW 14 22 29.84 1010 10 16 N/A
6:35 pm 18:35 Sunny 75 24 55 13 50 50 NNW 13 20 29.84 1010 10 16 N/A
6:55 pm 18:55 Mostly Cloudy 75 24 54 12 47 47 NNW 15 24 29.84 1010 10 16 N/A
7:15 pm 19:15 Mostly Cloudy 73 23 55 13 53 53 N 9 15 29.85 1011 10 16 N/A
7:35 pm 19:35 Partly Cloudy 72 22 55 13 57 57 NW 8 13 29.85 1011 10 16 N/A
7:55 pm 19:55 Partly Cloudy 72 22 55 13 57 57 NW 9 15 29.86 1011 10 16 N/A
8:15 pm 20:15 Mostly Cloudy 70 21 55 13 60 60 NW 7 11 29.86 1011 10 16 N/A
8:35 pm 20:35 Cloudy 70 21 55 13 60 60 NW 3 6 29.87 1012 10 16 N/A
8:55 pm 20:55 Cloudy 70 21 55 13 60 60 N 5 7 29.86 1011 10 16 N/A
9:15 pm 21:15 Mostly Cloudy 68 20 55 13 64 64 N N/A 29.87 1012 10 16 N/A
9:35 pm 21:35 Partly Cloudy 68 20 55 13 64 64 N N/A 29.87 1012 10 16 N/A
9:55 pm 21:55 Mostly Cloudy 64 18 59 15 83 83 W 5 7 29.87 1012 10 16 N/A
10:15 pm 22:15 Cloudy 64 18 57 14 78 78 WNW 3 6 29.88 1012 10 16 N/A
10:35 pm 22:35 Cloudy 66 19 55 13 68 68 N N/A 29.88 1012 10 16 N/A
10:55 pm 22:55 Cloudy 66 19 55 13 68 68 WNW 3 6 29.88 1012 10 16 N/A
11:15 pm 23:15 Cloudy 66 19 55 13 68 68 WNW 3 6 29.88 1012 10 16 N/A
11:35 pm 23:35 Mostly Cloudy 64 18 57 14 78 78 NW 9 15 29.88 1012 10 16 N/A
11:55 pm 23:55 Partly Cloudy 64 18 55 13 73 73 WNW 8 13 29.88 1012 10 16 N/A

Powered by AerisWeather